Location: Unspecified
(0.0000°N, 0.0000°E)
Time: 22:20:54
(UTC+00:00)

OTV 5 (USA 277) - Pass Details

Date: 13 February 2018
Orbit: 404 x 417 km, 43.0° (Epoch: 07 September)

Event Time Altitude Azimuth Distance (km) Brightness Sun altitude
Rises 05:04:46 0° 203° (SSW) 2,312 ? -16.9°
Reaches altitude 10° 05:07:13 10° 185° (S) 1,451 ? -16.3°
Maximum altitude 05:09:43 20° 135° (SE) 987 ? -15.7°
Drops below altitude 10° 05:12:14 10° 85° (E) 1,447 ? -15.1°
Sets 05:14:40 0° 67° (ENE) 2,304 ? -14.5°
